Location: Palma Campania
(40.8667°N, 14.5500°E)
Time: 15:04:22
(UTC+00:00)

Daily predictions for brighter satellites

Satellite Brightness Start Highest point End
(mag) Time Altitude Azimuth Time Altitude Azimuth Time Altitude Azimuth
COSMOS 2428 2.9 18:10:10 10° NNW 18:15:50 58° ENE 18:21:29 10° SE
CZ-4 R/B 3.0 18:12:23 10° SSW 18:16:21 40° W 18:20:19 10° NNW
Cosmos 1634 Rocket 4.3 18:10:24 10° SSE 18:16:21 48° E 18:22:18 10° NNE
Cosmos 2333 4.4 18:10:36 10° NNW 18:16:23 82° WSW 18:22:05 10° SSE
USA 186 2.3 18:17:33 10° SSE 18:20:42 41° ENE 18:23:41 10° N
Cosmos 44 3.8 18:16:27 10° SW 18:21:30 75° WNW 18:26:53 10° NNE
Cosmos 407 Rocket 4.5 18:20:05 10° SSE 18:24:09 24° E 18:28:16 10° NE
OBJECT-B 1.8 18:21:31 10° SE 18:24:20 29° ENE 18:27:13 10° N
SL-8 R/B 3.8 18:21:30 10° WNW 18:26:21 80° NNE 18:31:06 10° ESE
Cosmos 1408 2.6 18:30:20 10° N 18:33:53 81° W 18:37:26 10° S
Okean-O 4.2 18:30:19 10° SSW 18:34:26 37° W 18:38:34 10° NNW
NOSS 0 Rocket 4.3 18:28:41 10° NNW 18:34:44 50° ENE 18:40:38 11° SE
Cosmos 2058 Rocket 3.1 18:30:42 10° S 18:35:03 85° W 18:39:26 10° N
RESURS DK-1 3.4 18:31:29 10° SW 18:35:29 50° WNW 18:39:33 10° NNE
Cosmos 1953 Rocket 4.1 18:32:06 10° NNW 18:36:23 62° W 18:40:38 10° S
Cosmos 1140 Rocket 4.3 18:33:14 10° SSE 18:37:33 28° E 18:41:53 10° NE
Cosmos 909 Rocket 4.0 18:32:55 10° SSW 18:39:21 87° ESE 18:45:44 10° NNE
Cosmos 1812 Rocket 4.4 18:38:57 10° SSE 18:42:50 31° E 18:46:45 10° NNE
Cosmos 405 Rocket 3.3 18:39:28 10° N 18:43:13 39° ENE 18:46:25 13° SE
Helios 1A Rocket 3.6 18:40:01 10° S 18:44:02 58° W 18:48:05 10° NNW
Cosmos 2237 Rocket 2.9 18:39:34 10° N 18:44:46 37° ENE 18:48:56 15° ESE
Cosmos 1818 4.3 18:40:42 10° SW 18:46:03 59° NW 18:51:27 10° NNE
Hubble Space Telescope 2.8 18:45:58 10° SSW 18:47:53 13° S 18:49:10 12° SSE
Cosmos 1825 2.3 18:52:15 10° N 18:56:01 75° W 18:59:47 10° S
MetOp-A 4.4 18:50:53 10° S 18:56:13 72° WSW 19:01:35 10° NNW
Cosmos 2227 Rocket 2.6 18:51:53 10° S 18:57:05 39° ESE 19:02:19 10° NE
Exosat Rocket 3.6 18:53:45 10° NNW 18:59:46 89° WSW 19:04:24 12° SSE
Cosmos 1092 Rocket 4.5 18:56:59 10° NNW 19:03:07 62° W 19:09:10 10° S
Cosmos 2297 Rocket 2.2 18:58:09 10° S 19:03:40 59° ESE 19:09:13 10° NNE
IRIDIUM 106 4.5 19:00:09 10° SSE 19:05:12 53° E 19:10:16 10° NNE
Cosmos 2058 3.3 19:01:31 10° NNW 19:05:40 65° W 19:09:45 10° S
FALCON 9 DEB 2.7 19:02:47 10° SW 19:05:49 89° NW 19:08:54 10° NE
Cosmos 1633 3.4 19:05:07 10° NNE 19:08:22 32° ENE 19:09:14 28° ESE
FALCON 9 DEB 3.2 19:07:33 10° WSW 19:10:33 62° NW 19:13:34 10° NE
Resurs 01 Rocket 2.2 19:08:37 24° SE 19:10:47 40° ENE 19:14:58 10° N
Resurs 1-3 3.5 19:09:15 18° SSE 19:12:29 73° ENE 19:16:52 10° N
Cosmos 2219 3.1 19:07:18 10° S 19:12:48 63° ESE 19:18:21 10° NNE
Genesis I 4.2 19:12:39 10° NNW 19:16:20 33° NE 19:17:40 26° E
SJ-6B 3.6 19:12:57 10° S 19:16:32 48° W 19:20:12 10° NNW
Cosmos 2333 Rocket 3.9 19:13:31 10° NW 19:18:28 30° WSW 19:23:22 10° SSW
Cosmos 389 Rocket 3.1 19:17:56 10° SSW 19:21:24 58° W 19:24:55 10° N
Cosmos 2084 Rocket 3.1 19:17:27 10° SSW 19:21:24 81° SE 19:25:26 10° NE
Cosmos 1190 Rocket 3.9 19:16:24 10° S 19:21:33 63° ESE 19:26:43 10° NNE
FALCON 9 DEB 4.0 19:19:44 10° WSW 19:22:39 43° NW 19:25:35 10° NE
Ariane Rocket 3.1 19:18:22 13° S 19:22:50 77° WSW 19:27:54 10° NNW
Terra 4.0 19:25:00 10° ENE 19:25:32 11° ENE 19:26:30 10° NE
Cosmos 2279 Rocket 4.2 19:25:15 10° SSW 19:31:24 71° W 19:37:36 10° N
ATLAS 3B R/B 3.4 19:26:30 10° NW 19:33:20 52° WSW 19:39:09 16° S
SPOT 1/Viking Rocket 4.1 19:33:39 32° ESE 19:35:13 40° ENE 19:40:05 10° N
SPOT 5 4.5 19:34:55 18° ENE 19:35:17 18° ENE 19:38:27 10° NNE
Cosmos-2242 2.9 19:35:48 34° SSE 19:37:37 68° E 19:41:54 10° NNE
USA 215 4.3 19:34:16 17° E 19:38:41 36° NNE 19:44:32 10° NW
Cosmos 676 Rocket 4.0 19:37:14 26° S 19:39:59 54° ESE 19:45:03 10° NNE
Cosmos 1980 3.8 19:35:28 10° NNW 19:41:09 75° WSW 19:44:11 28° S
SL-16 R/B 2.9 19:36:32 10° N 19:41:49 38° ENE 19:43:25 32° E
Cosmos 2151 2.9 19:38:31 10° N 19:42:51 85° E 19:44:09 44° SSE
SPOT 3 Rocket 3.5 19:40:39 33° SSE 19:43:04 82° ENE 19:48:16 10° NNW
Meteor 2-21 Rocket 4.4 19:37:30 10° N 19:43:33 68° E 19:46:19 34° SSE
FALCON 9 DEB 4.5 19:41:40 10° W 19:44:30 34° NNW 19:46:42 15° NNE
COSMOS 2455 2.8 19:41:08 10° SSW 19:47:01 61° ESE 19:52:57 10° NE
SL-4 R/B 3.0 19:47:13 10° WSW 19:51:29 53° NNW 19:56:03 10° NE
Meteor 2-16 Rocket 4.4 19:47:45 10° N 19:53:55 69° E 19:56:11 40° SSE
ERS-1 Rocket 4.0 19:53:53 29° ENE 19:54:10 30° ENE 19:58:29 10° N
BREEZE M DEB (TANK) 3.5 19:50:56 10° SW 19:54:17 83° SE 20:04:29 10° ENE
IGS 5A 3.4 19:54:20 54° S 19:55:13 78° WSW 19:59:23 10° NNW
Landsat 7 3.7 19:55:13 48° SSE 19:56:33 89° W 20:01:20 10° NNW
OBJECT-B 3.8 19:55:14 10° WSW 19:56:37 12° W 19:58:02 10° WNW
Cosmos 2266 Rocket 3.9 19:53:25 10° N 19:59:48 89° ENE 20:02:35 36° S
ATLAS 5 CENTAUR R/B 3.8 19:59:59 10° W 20:01:00 13° SW 20:01:00 13° SW
Timation 1 Rocket 4.2 19:56:04 10° SSW 20:02:01 76° ESE 20:08:00 10° NNE
Cosmos 2221 4.4 20:05:06 18° NE 20:05:06 18° NE 20:06:38 10° NNE
ARIANE 5 R/B 2.9 20:04:04 50° ENE 20:04:04 50° ENE 20:08:08 10° N
USA 245 3.9 20:05:59 42° NNE 20:05:59 42° NNE 20:08:12 10° N
MetOp-B 4.2 20:09:16 46° S 20:10:54 75° WSW 20:16:17 10° NNW
Meteor 2-3 Rocket 4.0 20:10:04 10° NNW 20:15:45 65° W 20:17:47 39° SSW
Meteor 1-27 4.4 20:14:09 29° SSW 20:17:13 74° W 20:23:02 10° N
Cosmos 44 Rocket 3.4 20:12:41 10° SW 20:17:43 80° WNW 20:22:56 10° NNE
Cosmos 1954 Rocket 4.4 20:19:29 19° SW 20:23:07 59° WNW 20:28:15 10° NNE
Cosmos 2237 Rocket 3.6 20:23:49 10° NW 20:28:42 31° WSW 20:30:47 24° SW
Meteor 2-15 4.3 20:29:12 67° SSE 20:29:58 78° E 20:36:02 10° N
Cosmos 2263 Rocket 3.6 20:34:38 24° NE 20:34:38 24° NE 20:37:08 10° NE
Spot 2 Rocket 3.4 20:32:07 77° SW 20:32:18 79° WSW 20:37:24 10° NNW
CARTOSAT-1 4.0 20:33:28 59° NNW 20:33:28 59° NNW 20:37:00 10° NNW
BREEZE M DEB (TANK) 4.2 20:30:35 10° W 20:35:34 25° NNW 20:36:34 22° N
Cosmos 1766 Rocket 4.1 20:32:35 10° NNW 20:36:22 55° WNW 20:36:22 55° WNW
Cosmos 1244 Rocket 4.4 20:33:19 10° N 20:39:40 69° E 20:39:58 68° E
Cosmos 2082 4.2 20:37:14 20° SW 20:41:05 56° WNW 20:46:37 10° NNE
Cosmos 2227 Rocket 3.9 20:36:15 10° WSW 20:41:12 31° WNW 20:46:10 10° N
Okean 3 Rocket 4.5 20:41:41 10° NNW 20:45:39 46° WNW 20:45:39 46° WNW
Resurs 01 Rocket 3.8 20:46:10 17° WSW 20:47:25 18° W 20:50:32 10° NW
Cosmos 1553 Rocket 4.1 20:48:27 59° ENE 20:48:27 59° ENE 20:53:49 10° NNE
Lacrosse 5 rocket 3.8 20:46:42 10° NNW 20:49:30 16° NNE 20:49:59 16° NNE
Cosmos 468 Rocket 4.2 20:47:21 10° NNW 20:51:46 66° NNW 20:51:46 66° NNW
Cosmos 841 Rocket 4.4 20:52:21 10° N 20:56:15 40° NNE 20:56:15 40° NNE
Terra 2.6 21:03:52 48° NNW 21:03:52 48° NNW 21:07:18 10° NNW
Cosmos 1763 Rocket 4.0 21:00:17 10° NNW 21:04:17 53° NW 21:04:17 53° NW
SPOT 5 4.0 21:14:08 38° WNW 21:14:08 38° WNW 21:17:31 10° NNW
Cosmos 540 Rocket 4.3 21:08:02 10° NNW 21:11:41 46° N 21:11:41 46° N
NOSS 3-1 (C) 4.0 21:11:53 10° NW 21:19:37 89° ENE 21:20:23 77° SE
USA 215 3.2 21:21:36 79° W 21:21:36 79° W 21:27:52 10° NW
SL-16 R/B 3.5 21:20:52 10° NW 21:25:19 30° W 21:25:19 30° W
Cosmos 1943 4.2 21:46:21 10° NNW 21:50:06 44° NNW 21:50:06 44° NNW
SeaSat 1 4.3 21:49:20 10° NNE 21:51:18 25° NNE 21:51:18 25° NNE
Cosmos 2263 Rocket 3.7 22:16:15 30° NW 22:16:15 30° NW 22:20:50 10° N
Cosmos 1844 Rocket 4.4 22:30:56 27° NNE 22:30:56 27° NNE 22:33:24 10° NNE
Lacrosse 5 rocket 4.4 22:24:57 10° NW 22:25:34 14° NW 22:25:34 14° NW
SJ 16-02 4.4 23:17:22 11° NE 23:17:22 11° NE 23:17:33 10° NE
Cosmos 2278 Rocket 4.2 23:19:29 21° ENE 23:19:29 21° ENE 23:21:43 10° NE
ATLAS 5 CENTAUR R/B 3.6 23:22:00 10° NNW 23:27:06 34° NE 23:27:06 34° NE
USA 281 3.6 23:43:09 57° NNW 23:43:09 57° NNW 23:48:13 10° NNW
COSMOS 2406 4.4 23:40:52 10° NNW 23:44:55 38° NNE 23:44:55 38° NNE
